RH
3 3 4 4 6 7 9 10 11 10 10 9 7 6 5 6 7 10 15 25 34 24 13 8 8 10 13 13 16 23 29 37 36 28 18 20 26 34 36 38 23 38 31 27 17 12 7
5 7 7 8 9 10 12 14 15 15 14 14 13 10 8 6 6 10 20 30 36 20 12 9 11 17 20 20 26 33 41 43 36 28 22 23 25 41 43 51 57 39 33 63 70 60 11
10 12 13 15 15 17 19 20 21 20 20 19 18 18 15 10 6 10 23 36 34 18 11 12 16 21 27 33 36 42 45 41 40 28 34 35 26 33 59 66 82 65 54 79 100 91 22
11 12 17 22 23 24 26 27 28 28 28 28 27 23 20 15 8 11 24 40 32 17 13 16 21 24 30 42 45 46 46 40 32 47 38 42 42 68 100 100 95 83 86 79 89 100 59
12 20 24 25 28 31 32 32 31 32 34 33 30 26 23 20 10 12 29 43 28 18 15 19 25 28 40 43 45 35 38 34 45 58 68 63 82 99 100 100 100 99 91 92 85 98 97
19 13 22 27 29 33 34 33 33 38 38 37 34 29 25 24 16 16 36 45 26 19 18 24 26 38 44 35 30 28 36 43 77 84 50 73 100 100 100 92 74 84 86 84 81 97 100
47 54 18 25 29 32 34 33 32 41 43 41 37 34 28 25 21 17 41 49 25 20 24 27 27 44 34 32 29 30 46 66 98 95 84 76 69 79 95 72 88 89 78 64 75 100 100
42 57 66 27 33 27 28 33 33 38 46 45 40 40 36 25 22 22 41 50 26 20 28 30 37 46 28 27 25 34 48 97 99 99 100 100 100 93 92 74 84 69 68 76 99 100 96
32 37 47 77 41 36 26 21 32 32 45 45 42 40 41 27 23 21 43 49 25 21 31 33 44 40 28 27 23 26 26 81 97 100 99 100 100 100 100 92 86 97 96 100 86 100 99
93 55 37 42 80 46 36 24 29 33 43 46 43 42 41 37 22 18 45 54 25 22 30 37 48 43 36 22 22 27 22 62 100 90 98 100 100 100 100 100 100 100 98 94 100 100 91
74 82 43 52 44 54 43 32 30 32 40 46 44 46 41 40 24 18 42 60 25 23 36 41 57 46 53 27 21 26 25 85 93 99 100 94 100 100 100 98 96 96 86 96 75 94 100
42 64 71 42 43 41 43 37 29 32 46 48 49 53 45 40 25 20 41 64 25 25 37 48 59 42 56 33 22 19 20 90 89 100 100 100 100 92 77 89 86 100 94 90 98 93 100
22 43 70 51 35 35 39 30 29 35 48 52 59 58 50 42 32 22 36 65 26 28 33 42 58 44 58 33 21 17 18 72 90 100 90 77 96 75 63 73 76 77 72 100 100 94 84
17 22 35 82 23 29 35 29 31 34 49 59 65 64 58 41 38 26 27 64 28 27 32 40 55 60 51 55 15 17 48 87 96 83 92 92 100 85 75 76 85 95 98 90 100 69 64
17 15 25 61 76 23 32 31 41 38 47 66 69 67 69 43 38 26 19 64 37 28 31 34 43 72 60 49 68 39 65 74 71 57 76 75 92 100 98 95 96 97 100 100 99 91 80
15 16 18 28 83 62 28 33 41 46 50 72 70 67 72 53 37 27 14 64 49 29 33 33 33 53 70 72 55 78 76 72 72 71 66 66 72 81 72 100 100 99 100 100 91 100 92
13 15 14 19 50 93 50 28 43 43 50 74 66 64 68 65 38 29 15 65 67 32 34 34 36 48 66 74 78 60 59 61 72 76 77 98 85 94 87 91 100 100 100 100 99 91 100
14 14 15 23 37 75 78 42 27 42 49 74 63 60 65 74 39 30 18 62 75 32 32 40 39 45 60 85 88 83 86 62 51 51 56 85 84 81 100 97 100 100 100 93 98 97 100
94 24 16 23 26 42 70 60 43 36 40 70 59 61 69 78 43 31 23 44 75 32 32 38 45 46 59 81 85 77 77 95 99 97 48 54 90 86 87 82 94 100 98 100 99 100 100
100 83 41 34 34 29 30 68 65 38 33 50 55 54 69 79 58 30 30 23 77 79 32 33 44 51 60 76 90 93 98 100 100 100 97 44 54 76 85 99 91 100 100 99 98 98 97
100 100 50 63 38 33 35 47 97 48 34 29 42 51 70 84 63 32 36 15 70 80 52 34 35 44 46 51 56 57 75 89 100 94 97 91 95 60 61 96 100 100 100 92 92 100 79
100 90 70 86 50 45 30 52 92 81 47 23 26 47 63 86 89 30 38 16 52 86 91 41 34 32 44 54 56 44 50 75 77 100 100 100 100 97 60 73 90 99 99 82 95 97 94
100 100 100 99 54 78 78 72 97 93 53 36 18 39 48 77 94 32 39 19 25 80 92 98 53 35 32 31 50 65 66 55 96 96 100 99 100 100 92 93 85 79 86 84 96 99 98
95 100 100 77 60 85 76 100 90 100 72 56 24 40 60 81 97 33 40 29 18 57 88 96 98 84 46 35 32 31 47 66 56 100 100 100 98 99 93 96 89 72 79 89 95 99 100
90 100 100 52 42 93 93 93 81 89 92 75 66 61 67 82 98 34 38 37 17 25 63 85 97 99 100 41 34 34 30 39 63 77 100 94 99 98 92 93 79 78 80 88 97 100 97
60 57 55 87 100 97 82 100 100 100 89 70 70 65 71 85 96 36 34 41 18 21 32 57 86 97 100 99 59 34 34 31 34 67 90 100 91 88 96 92 77 73 75 94 94 95 95
38 39 41 98 100 100 99 100 100 100 100 90 84 74 73 92 96 35 32 41 25 19 27 54 65 74 93 99 98 82 36 34 32 32 61 68 98 100 100 99 72 70 58 85 89 95 96
15 19 41 79 100 99 78 98 100 100 100 100 100 87 84 95 85 31 27 36 40 19 22 37 44 55 81 97 98 98 98 53 39 34 29 47 61 64 96 96 81 68 66 64 84 95 95
28 27 30 92 100 98 74 96 100 100 100 100 100 96 96 100 61 27 25 30 38 34 23 24 25 37 86 94 99 98 95 100 92 49 35 31 31 50 59 62 74 60 58 54 60 78 76
Wind_Speed
13 13 12 14 15 17 18 19 20 22 23 25 26 28 30 31 33 35 37 39 41 44 48 52 53 54 50 45 44 45 49 50 50 46 40 37 35 40 41 36 47 54 56 62 63 61 74
14 14 14 15 16 16 18 19 21 23 24 26 27 29 31 32 34 36 37 40 42 45 50 54 54 52 47 44 44 46 47 47 45 41 40 34 35 36 35 38 44 47 51 51 54 53 68
15 16 15 15 15 16 19 20 20 21 23 25 27 29 31 33 35 36 38 40 43 47 51 54 53 49 44 44 45 45 44 41 41 36 31 32 36 39 36 38 37 43 51 53 53 48 62
19 18 16 17 17 18 18 19 20 21 23 26 29 31 32 33 35 37 38 40 43 47 52 54 51 46 41 43 43 43 39 31 24 28 32 36 41 38 31 29 35 40 48 53 49 50 53
23 21 20 20 19 19 20 19 20 21 25 28 31 32 32 34 35 37 38 40 43 48 52 52 46 41 41 41 42 37 27 20 26 32 33 37 34 31 32 32 37 36 43 45 44 46 46
28 28 26 24 23 22 22 22 21 22 25 28 31 32 33 35 37 37 38 40 43 48 52 49 42 41 39 40 35 20 15 24 23 17 15 15 24 23 29 31 32 32 37 40 39 40 45
36 33 32 29 27 26 25 24 24 24 26 28 31 32 34 35 37 38 39 40 43 46 49 44 40 38 37 35 21 14 23 19 13 16 16 6 7 12 16 24 31 32 33 35 45 29 43
37 36 35 34 32 30 28 27 26 26 25 28 31 33 35 35 38 38 39 40 43 48 47 41 38 35 34 26 12 14 21 19 11 13 15 15 5 7 10 17 24 28 30 28 42 29 28
38 37 36 32 34 32 30 29 28 27 26 27 30 32 35 36 38 39 39 40 43 47 44 38 35 31 32 18 9 14 20 19 15 14 19 17 10 12 4 10 19 15 24 31 26 27 30
44 39 37 34 34 37 33 30 30 27 27 27 29 32 34 36 37 39 39 39 42 46 42 36 32 27 29 14 10 11 19 17 13 11 12 14 9 9 11 11 10 8 14 25 29 26 28
44 41 40 40 37 37 37 33 32 29 27 27 28 31 33 36 37 39 38 39 41 44 41 37 30 26 26 15 8 10 15 16 7 9 7 10 11 10 3 14 13 21 14 20 21 19 23
51 45 42 41 40 39 37 36 33 29 28 27 27 30 32 34 36 39 38 38 39 41 39 32 29 24 25 14 8 8 14 13 8 8 8 8 10 8 4 10 11 17 10 21 26 23 28
51 49 46 45 42 41 37 35 34 31 29 28 26 28 31 32 35 38 37 36 37 39 38 31 26 20 22 15 6 7 12 5 5 7 7 10 9 4 5 9 9 12 10 15 23 28 32
53 50 49 47 46 42 41 36 35 34 30 28 26 27 30 30 34 37 35 35 34 37 36 30 23 18 17 16 7 8 9 6 2 6 5 10 10 7 7 7 3 14 16 23 19 32 32
57 53 51 52 50 45 42 40 35 35 32 28 25 26 29 28 32 35 33 33 32 34 34 30 22 19 13 13 11 8 5 7 5 4 3 5 4 6 8 10 7 10 19 20 24 28 29
62 58 54 52 54 51 46 42 38 35 33 28 26 26 28 28 30 33 31 31 29 31 31 29 21 18 18 12 10 7 8 10 9 7 3 3 1 2 9 9 9 16 17 18 23 20 36
67 62 60 53 55 56 51 46 42 38 34 29 27 27 27 27 27 31 29 29 26 27 27 27 23 19 18 15 11 11 10 9 9 9 11 9 6 7 3 9 12 20 18 23 19 18 16
67 67 61 56 54 55 55 51 46 42 36 33 25 27 27 27 25 28 28 27 25 24 24 25 22 19 18 17 15 11 11 12 13 10 10 11 11 11 9 6 12 20 25 24 22 23 16
63 69 67 61 55 55 53 55 52 46 41 35 27 26 27 26 23 25 26 25 23 21 22 21 21 19 18 17 18 12 11 12 12 13 12 9 9 10 10 8 10 16 26 25 28 20 9
43 64 65 61 56 53 55 56 56 51 44 38 30 27 28 26 23 24 25 23 22 20 19 19 19 19 18 18 19 17 15 13 13 10 11 11 10 9 10 8 10 17 23 25 22 23 16
59 54 55 58 57 52 54 52 59 56 48 43 33 29 28 26 22 22 23 21 21 19 18 17 18 17 18 17 17 19 21 18 11 10 8 10 11 11 13 12 11 15 24 23 24 24 23
59 60 63 59 58 55 55 51 56 59 53 46 35 31 30 28 24 20 21 19 19 19 17 16 16 16 18 18 19 18 17 19 17 9 9 8 11 10 10 13 16 15 24 22 25 20 18
70 37 62 58 56 51 48 51 52 57 57 47 39 35 34 31 25 20 20 18 17 18 18 15 15 15 16 17 18 18 17 17 16 13 8 7 7 9 8 10 11 15 21 25 29 24 23
70 35 43 56 54 49 48 47 48 55 59 50 42 36 37 35 25 21 20 17 15 15 16 17 14 14 15 15 17 17 17 16 16 12 13 6 3 5 9 7 6 11 17 24 32 25 24
58 28 47 53 55 56 52 46 46 53 63 56 43 41 42 34 28 23 20 17 15 13 14 15 16 13 13 13 14 15 16 15 14 17 12 11 7 3 2 3 7 9 12 22 29 25 27
61 55 58 54 48 47 49 45 39 41 54 59 48 44 48 42 34 27 22 18 16 12 12 13 15 16 14 10 12 12 13 14 14 12 15 8 8 6 2 3 7 11 12 17 27 28 25
57 60 59 59 37 43 47 46 40 42 46 52 58 51 50 40 33 29 23 19 16 13 11 10 12 14 16 14 9 10 11 11 13 12 10 10 8 6 5 6 7 9 13 13 23 20 23
56 54 44 40 41 43 43 42 38 39 44 50 53 56 49 42 34 32 27 22 17 15 12 11 10 12 15 15 12 9 8 9 9 10 11 9 8 7 8 6 4 10 12 13 17 18 14
50 48 42 44 38 41 41 45 33 42 50 50 53 53 46 43 35 35 30 25 21 17 15 13 12 10 13 14 13 12 10 6 7 8 7 8 8 6 5 5 6 9 13 15 15 17 18
Wind_Direction
244 245 249 265 273 279 282 287 290 293 295 299 303 304 306 308 309 313 317 319 319 320 322 322 321 318 310 302 300 295 294 292 288 280 271 260 269 274 274 268 251 245 237 237 237 228 228
251 258 261 265 274 280 284 288 292 296 302 305 308 309 311 313 314 317 319 321 322 323 324 323 321 317 310 304 301 300 295 291 286 275 271 260 269 275 268 266 254 243 231 230 227 227 223
256 259 263 269 271 276 284 291 297 303 304 308 312 315 317 317 318 320 323 323 324 325 325 323 321 318 312 308 306 301 295 292 284 280 264 273 274 273 270 264 252 240 232 224 224 223 225
269 265 264 267 272 275 281 290 298 305 309 313 316 318 320 321 322 324 325 325 326 326 326 324 322 320 316 312 307 302 299 292 282 278 282 276 273 271 253 249 249 239 232 229 223 222 220
274 272 268 267 270 275 280 287 296 304 310 315 318 319 321 324 325 326 327 327 327 328 328 326 325 323 320 316 311 306 300 290 294 291 286 278 266 253 240 238 242 238 234 229 222 220 219
273 274 272 267 266 271 278 284 291 299 307 314 318 322 324 325 327 328 329 328 329 331 330 329 329 327 326 322 320 318 310 312 307 329 320 281 252 239 230 238 244 246 236 224 217 217 220
265 269 269 267 264 266 272 278 285 294 304 313 318 325 326 325 328 330 331 330 331 332 331 331 330 333 331 327 328 336 329 315 310 355 16 18 276 258 239 234 237 226 221 217 206 212 210
263 264 264 266 263 263 268 274 281 288 299 308 316 324 329 327 330 331 333 332 333 336 336 335 335 337 335 331 333 344 341 337 327 333 345 14 353 263 255 247 230 208 210 220 215 187 219
259 262 263 269 267 265 268 269 276 283 293 303 312 320 328 328 331 332 335 333 335 338 340 338 337 338 340 332 333 340 342 350 338 331 344 342 356 343 234 196 215 214 212 214 205 196 204
261 260 259 260 261 267 267 269 272 279 288 298 308 316 324 329 330 333 336 335 337 341 343 342 338 340 345 338 321 335 342 347 342 323 338 354 349 259 262 267 286 218 157 186 185 206 210
256 259 258 257 257 261 267 267 271 276 283 293 305 314 320 329 330 334 337 337 339 343 346 342 342 343 347 343 321 331 343 349 342 337 341 346 332 312 37 153 170 164 178 186 208 219 207
256 255 255 253 258 256 261 265 269 274 281 291 302 311 318 328 330 334 337 339 340 346 350 345 345 350 349 343 328 334 344 4 2 348 353 4 319 321 163 169 180 193 202 188 194 201 201
251 254 253 251 252 256 256 260 265 270 278 287 299 308 315 325 328 334 337 339 342 348 350 349 349 355 359 358 343 333 331 344 325 17 38 23 25 53 149 181 171 200 219 182 186 187 194
249 251 253 252 247 252 254 254 260 267 273 282 293 305 312 321 327 333 336 338 341 348 353 352 350 353 0 12 347 317 309 327 4 354 42 41 47 49 129 147 235 227 218 214 210 192 188
244 247 249 251 247 249 251 253 256 263 268 275 288 301 310 318 325 332 334 337 341 348 353 354 354 356 350 355 8 340 317 311 289 319 327 59 63 167 237 244 277 224 203 206 185 189 193
239 243 247 247 247 247 248 251 254 258 262 268 283 295 306 314 322 329 332 336 339 345 353 355 355 357 2 353 333 326 333 328 289 269 262 296 232 259 243 233 235 187 189 197 196 194 205
236 239 242 244 244 246 245 248 251 255 258 263 273 288 301 310 318 326 330 334 338 342 352 355 356 352 359 1 342 318 308 319 325 298 288 286 297 316 304 221 227 207 197 188 196 208 170
236 238 238 241 241 244 243 243 249 252 253 258 265 278 293 304 312 321 326 332 336 338 350 355 356 350 350 356 349 335 309 297 292 291 299 286 276 288 299 268 236 219 201 191 200 181 164
235 232 237 239 241 243 244 243 243 248 250 253 259 270 285 297 305 314 322 327 332 333 344 351 354 353 353 350 354 346 331 317 297 285 271 290 294 285 259 254 244 238 204 198 201 176 123
229 224 230 234 237 239 244 243 240 245 247 249 254 262 277 289 297 306 318 323 329 330 333 347 349 354 353 354 350 345 340 329 313 308 272 268 274 267 249 256 247 224 216 198 197 158 154
226 226 231 234 233 238 244 245 239 237 244 247 248 255 269 282 287 296 312 317 324 329 326 337 344 346 350 351 356 13 7 0 332 316 269 261 266 258 249 241 249 230 208 212 197 172 168
228 238 236 232 232 232 237 247 240 234 240 244 243 251 262 271 278 285 302 309 319 325 327 326 334 346 346 345 346 358 3 359 357 323 299 288 274 255 259 252 239 229 208 210 196 181 176
220 221 219 222 229 232 236 240 239 236 234 243 241 245 256 264 269 273 290 300 310 321 326 328 326 334 346 351 353 350 354 355 3 0 349 299 277 231 242 264 240 221 216 201 183 177 184
211 219 215 225 227 229 234 234 236 238 232 236 235 242 252 258 260 260 277 292 299 313 322 331 328 329 337 347 355 356 358 0 356 5 16 339 301 257 253 274 232 203 213 201 176 182 186
212 216 217 228 228 231 232 235 241 238 229 228 232 240 247 258 256 251 262 283 286 300 317 328 334 340 332 339 349 359 2 4 6 7 24 21 6 1 279 230 182 176 202 204 187 183 190
211 217 212 222 218 224 227 227 236 235 229 225 233 237 244 250 255 242 249 270 272 287 302 325 333 341 350 340 344 354 5 10 14 11 13 33 32 38 72 147 168 168 186 200 198 191 192
206 212 216 222 224 223 225 222 229 234 226 227 228 235 243 246 239 236 239 254 264 271 285 307 327 335 345 349 355 350 0 14 17 17 11 11 25 52 70 116 156 181 187 203 199 188 202
206 209 206 206 219 227 236 230 232 231 228 225 224 229 236 243 230 232 233 241 256 259 270 284 309 323 331 343 345 357 355 5 15 19 19 21 22 33 70 90 151 172 175 186 190 193 203
203 203 202 203 218 224 231 230 234 230 226 227 228 231 234 238 223 228 230 233 245 254 257 271 289 302 318 334 341 342 359 4 351 8 25 30 34 46 74 97 115 167 182 188 194 200 207